Time,TemperatureF,DewpointF,PressureIn,WindDirection,WindDirectionDegrees,WindSpeedMPH,WindSpeedGustMPH,Humidity,HourlyPrecipIn,Conditions,Clouds,dailyrainin,SolarRadiationWatts/m^2,SoftwareType,DateUTC
2013-04-23 00:21:00,35.0,32.0,-100.00,NW,319,6.0,9.0,87,0.00,,,0.00,0.000000,,2013-04-23 08:21:00,
2013-04-23 00:31:00,35.0,32.0,-100.00,NW,319,6.0,9.0,87,0.00,,,0.00,0.000000,,2013-04-23 08:31:00,
2013-04-23 00:42:00,35.0,32.0,-100.00,NW,319,6.0,9.0,87,0.00,,,0.00,0.000000,,2013-04-23 08:42:00,
2013-04-23 00:52:00,35.0,32.0,-100.00,NW,319,6.0,9.0,87,0.00,,,0.00,0.000000,,2013-04-23 08:52:00,
2013-04-23 01:21:00,34.0,32.0,-100.00,NNW,345,5.0,9.0,92,0.00,,,-99.99,0.000000,,2013-04-23 09:21:00,
2013-04-23 01:32:00,34.0,32.0,-100.00,NNW,345,5.0,9.0,92,0.00,,,-99.99,0.000000,,2013-04-23 09:32:00,
2013-04-23 01:42:00,34.0,32.0,-100.00,NNW,345,5.0,9.0,92,0.00,,,-99.99,0.000000,,2013-04-23 09:42:00,
2013-04-23 01:52:00,34.0,32.0,-100.00,NNW,345,5.0,9.0,92,0.00,,,-99.99,0.000000,,2013-04-23 09:52:00,
2013-04-23 02:22:00,35.0,34.0,-100.00,NNW,337,5.0,9.0,95,0.00,,,0.00,0.000000,,2013-04-23 10:22:00,
2013-04-23 02:32:00,35.0,34.0,-100.00,NNW,337,5.0,9.0,95,0.00,,,0.00,0.000000,,2013-04-23 10:32:00,
2013-04-23 02:42:00,35.0,34.0,-100.00,NNW,337,5.0,9.0,95,0.00,,,0.00,0.000000,,2013-04-23 10:42:00,
2013-04-23 02:52:00,35.0,34.0,-100.00,NNW,337,5.0,9.0,95,0.00,,,0.00,0.000000,,2013-04-23 10:52:00,
2013-04-23 03:21:00,35.0,33.0,-100.00,NNW,333,5.0,12.0,93,0.00,,,0.00,0.000000,,2013-04-23 11:21:00,
2013-04-23 03:32:00,35.0,33.0,-100.00,NNW,333,5.0,12.0,93,0.00,,,0.00,0.000000,,2013-04-23 11:32:00,
2013-04-23 03:42:00,35.0,33.0,-100.00,NNW,333,5.0,12.0,93,0.00,,,0.00,0.000000,,2013-04-23 11:42:00,
2013-04-23 03:52:00,35.0,33.0,-100.00,NNW,333,5.0,12.0,93,0.00,,,0.00,0.000000,,2013-04-23 11:52:00,
2013-04-23 04:22:00,35.0,33.0,-100.00,NW,322,5.0,11.0,92,0.00,,,0.00,0.000000,,2013-04-23 12:22:00,
2013-04-23 04:32:00,35.0,33.0,-100.00,NW,322,5.0,11.0,92,0.00,,,0.00,0.000000,,2013-04-23 12:32:00,
2013-04-23 04:41:00,35.0,33.0,-100.00,NW,322,5.0,11.0,92,0.00,,,0.00,0.000000,,2013-04-23 12:41:00,
2013-04-23 04:51:00,35.0,33.0,-100.00,NW,322,5.0,11.0,92,0.00,,,0.00,0.000000,,2013-04-23 12:51:00,
2013-04-23 05:21:00,35.0,33.0,-100.00,NNW,347,6.0,14.0,92,0.00,,,0.00,0.000000,,2013-04-23 13:21:00,
2013-04-23 05:32:00,35.0,33.0,-100.00,NNW,347,6.0,14.0,92,0.00,,,0.00,0.000000,,2013-04-23 13:32:00,
2013-04-23 05:41:00,35.0,33.0,-100.00,NNW,347,6.0,14.0,92,0.00,,,0.00,0.000000,,2013-04-23 13:41:00,
2013-04-23 05:52:00,35.0,33.0,-100.00,NNW,347,6.0,14.0,92,0.00,,,0.00,0.000000,,2013-04-23 13:52:00,
2013-04-23 06:22:00,35.0,33.0,-100.00,NNW,339,8.0,14.0,92,0.00,,,0.00,6.000000,,2013-04-23 14:22:00,
2013-04-23 06:32:00,35.0,33.0,-100.00,NNW,339,8.0,14.0,92,0.00,,,0.00,6.000000,,2013-04-23 14:32:00,
2013-04-23 06:42:00,35.0,33.0,-100.00,NNW,339,8.0,14.0,92,0.00,,,0.00,6.000000,,2013-04-23 14:42:00,
2013-04-23 06:52:00,35.0,33.0,-100.00,NNW,339,8.0,14.0,92,0.00,,,0.00,6.000000,,2013-04-23 14:52:00,
2013-04-23 07:21:00,35.0,33.0,-100.00,NNW,335,6.0,12.0,92,0.00,,,0.00,36.000000,,2013-04-23 15:21:00,
2013-04-23 07:32:00,35.0,33.0,-100.00,NNW,335,6.0,12.0,92,0.00,,,0.00,36.000000,,2013-04-23 15:32:00,
2013-04-23 07:42:00,35.0,33.0,-100.00,NNW,335,6.0,12.0,92,0.00,,,0.00,36.000000,,2013-04-23 15:42:00,
2013-04-23 07:52:00,35.0,33.0,-100.00,NNW,335,6.0,12.0,92,0.00,,,0.00,36.000000,,2013-04-23 15:52:00,
2013-04-23 08:23:00,36.0,33.0,-100.00,NW,321,7.0,12.0,89,0.00,,,0.00,130.000000,,2013-04-23 16:23:00,
2013-04-23 08:33:00,36.0,33.0,-100.00,NW,321,7.0,12.0,89,0.00,,,0.00,130.000000,,2013-04-23 16:33:00,
2013-04-23 08:42:00,36.0,33.0,-100.00,NW,321,7.0,12.0,89,0.00,,,0.00,130.000000,,2013-04-23 16:42:00,
2013-04-23 08:52:00,36.0,33.0,-100.00,NW,321,7.0,12.0,89,0.00,,,0.00,130.000000,,2013-04-23 16:52:00,
2013-04-23 09:22:00,39.0,34.0,-100.00,North,355,9.0,12.0,83,0.00,,,0.00,343.000000,,2013-04-23 17:22:00,
2013-04-23 09:32:00,39.0,34.0,-100.00,North,355,9.0,12.0,83,0.00,,,0.00,343.000000,,2013-04-23 17:32:00,
2013-04-23 09:42:00,39.0,34.0,-100.00,North,355,9.0,12.0,83,0.00,,,0.00,343.000000,,2013-04-23 17:42:00,
2013-04-23 09:53:00,39.0,34.0,-100.00,North,355,9.0,12.0,83,0.00,,,0.00,343.000000,,2013-04-23 17:53:00,
2013-04-23 10:22:00,42.0,34.0,-100.00,North,359,6.0,11.0,74,0.00,,,0.00,628.000000,,2013-04-23 18:22:00,
2013-04-23 10:32:00,42.0,34.0,-100.00,North,359,6.0,11.0,74,0.00,,,0.00,628.000000,,2013-04-23 18:32:00,
2013-04-23 10:42:00,42.0,34.0,-100.00,North,359,6.0,11.0,74,0.00,,,0.00,628.000000,,2013-04-23 18:42:00,
2013-04-23 10:52:00,42.0,34.0,-100.00,North,359,6.0,11.0,74,0.00,,,0.00,628.000000,,2013-04-23 18:52:00,
2013-04-23 11:21:00,44.0,33.0,-100.00,North,7,8.0,13.0,65,0.00,,,0.00,794.000000,,2013-04-23 19:21:00,
2013-04-23 11:32:00,44.0,33.0,-100.00,North,7,8.0,13.0,65,0.00,,,0.00,794.000000,,2013-04-23 19:32:00,
2013-04-23 11:42:00,44.0,33.0,-100.00,North,7,8.0,13.0,65,0.00,,,0.00,794.000000,,2013-04-23 19:42:00,
2013-04-23 11:52:00,44.0,33.0,-100.00,North,7,8.0,13.0,65,0.00,,,0.00,794.000000,,2013-04-23 19:52:00,
2013-04-23 12:21:00,45.0,32.0,-100.00,North,11,7.0,13.0,59,0.00,,,0.00,771.000000,,2013-04-23 20:21:00,
2013-04-23 12:31:00,45.0,32.0,-100.00,North,11,7.0,13.0,59,0.00,,,0.00,771.000000,,2013-04-23 20:31:00,
2013-04-23 12:42:00,45.0,32.0,-100.00,North,11,7.0,13.0,59,0.00,,,0.00,771.000000,,2013-04-23 20:42:00,
2013-04-23 12:51:00,45.0,32.0,-100.00,North,11,7.0,13.0,59,0.00,,,0.00,771.000000,,2013-04-23 20:51:00,
2013-04-23 13:21:00,47.0,32.0,-100.00,North,11,7.0,10.0,56,0.00,,,0.00,835.000000,,2013-04-23 21:21:00,
2013-04-23 13:32:00,47.0,32.0,-100.00,North,11,7.0,10.0,56,0.00,,,0.00,835.000000,,2013-04-23 21:32:00,
2013-04-23 13:43:00,47.0,32.0,-100.00,North,11,7.0,10.0,56,0.00,,,0.00,835.000000,,2013-04-23 21:43:00,
2013-04-23 13:52:00,47.0,32.0,-100.00,North,11,7.0,10.0,56,0.00,,,0.00,835.000000,,2013-04-23 21:52:00,
2013-04-23 14:22:00,50.0,32.0,-100.00,North,352,6.0,10.0,49,0.00,,,0.00,840.000000,,2013-04-23 22:22:00,
2013-04-23 14:33:00,50.0,32.0,-100.00,North,352,6.0,10.0,49,0.00,,,0.00,840.000000,,2013-04-23 22:33:00,
2013-04-23 14:42:00,50.0,32.0,-100.00,North,352,6.0,10.0,49,0.00,,,0.00,840.000000,,2013-04-23 22:42:00,
2013-04-23 14:52:00,50.0,32.0,-100.00,North,352,6.0,10.0,49,0.00,,,0.00,840.000000,,2013-04-23 22:52:00,
2013-04-23 15:22:00,50.0,30.0,-100.00,North,10,5.0,9.0,46,0.00,,,0.00,614.000000,,2013-04-23 23:22:00,
2013-04-23 15:32:00,50.0,30.0,-100.00,North,10,5.0,9.0,46,0.00,,,0.00,614.000000,,2013-04-23 23:32:00,
2013-04-23 15:42:00,50.0,30.0,-100.00,North,10,5.0,9.0,46,0.00,,,0.00,614.000000,,2013-04-23 23:42:00,
2013-04-23 15:52:00,50.0,30.0,-100.00,North,10,5.0,9.0,46,0.00,,,0.00,614.000000,,2013-04-23 23:52:00,
2013-04-23 16:21:00,51.0,30.0,-100.00,North,7,6.0,11.0,45,0.00,,,0.00,585.000000,,2013-04-24 00:21:00,
2013-04-23 16:32:00,51.0,30.0,-100.00,North,7,6.0,11.0,45,0.00,,,0.00,585.000000,,2013-04-24 00:32:00,
2013-04-23 16:41:00,51.0,30.0,-100.00,North,7,6.0,11.0,45,0.00,,,0.00,585.000000,,2013-04-24 00:41:00,
2013-04-23 16:51:00,51.0,30.0,-100.00,North,7,6.0,11.0,45,0.00,,,0.00,585.000000,,2013-04-24 00:51:00,
2013-04-23 17:21:00,49.0,27.0,-100.00,North,1,5.0,9.0,42,0.00,,,0.00,345.000000,,2013-04-24 01:21:00,
2013-04-23 17:32:00,49.0,27.0,-100.00,North,1,5.0,9.0,42,0.00,,,0.00,345.000000,,2013-04-24 01:32:00,
2013-04-23 17:42:00,49.0,27.0,-100.00,North,1,5.0,9.0,42,0.00,,,0.00,345.000000,,2013-04-24 01:42:00,
2013-04-23 17:52:00,49.0,27.0,-100.00,North,1,5.0,9.0,42,0.00,,,0.00,345.000000,,2013-04-24 01:52:00,
2013-04-23 18:26:00,49.0,26.0,-100.00,NNE,16,4.0,8.0,41,0.00,,,0.00,212.000000,,2013-04-24 02:26:00,
2013-04-23 18:36:00,49.0,26.0,-100.00,NNE,16,4.0,8.0,41,0.00,,,0.00,212.000000,,2013-04-24 02:36:00,
2013-04-23 18:46:00,49.0,26.0,-100.00,NNE,16,4.0,8.0,41,0.00,,,0.00,212.000000,,2013-04-24 02:46:00,
2013-04-23 19:26:00,47.0,29.0,-100.00,NNE,15,3.0,6.0,49,0.00,,,0.00,100.000000,,2013-04-24 03:26:00,
2013-04-23 19:46:00,47.0,29.0,-100.00,NNE,15,3.0,6.0,49,0.00,,,0.00,100.000000,,2013-04-24 03:46:00,
2013-04-23 19:54:00,47.0,29.0,-100.00,NNE,15,3.0,6.0,49,0.00,,,0.00,100.000000,,2013-04-24 03:54:00,
2013-04-23 20:23:00,45.0,27.0,-100.00,NE,40,2.0,5.0,50,0.00,,,0.00,32.000000,,2013-04-24 04:23:00,
2013-04-23 20:33:00,45.0,27.0,-100.00,NE,40,2.0,5.0,50,0.00,,,0.00,32.000000,,2013-04-24 04:33:00,
2013-04-23 20:43:00,45.0,27.0,-100.00,NE,40,2.0,5.0,50,0.00,,,0.00,32.000000,,2013-04-24 04:43:00,
2013-04-23 20:52:00,45.0,27.0,-100.00,NE,40,2.0,5.0,50,0.00,,,0.00,32.000000,,2013-04-24 04:52:00,
2013-04-23 21:21:00,43.0,29.0,-100.00,North,2,0.0,3.0,57,0.00,,,0.00,5.000000,,2013-04-24 05:21:00,
2013-04-23 21:32:00,43.0,29.0,-100.00,North,2,0.0,3.0,57,0.00,,,0.00,5.000000,,2013-04-24 05:32:00,
2013-04-23 21:42:00,43.0,29.0,-100.00,North,2,0.0,3.0,57,0.00,,,0.00,5.000000,,2013-04-24 05:42:00,
2013-04-23 21:51:00,43.0,29.0,-100.00,North,2,0.0,3.0,57,0.00,,,0.00,5.000000,,2013-04-24 05:51:00,
2013-04-23 22:21:00,41.0,31.0,-100.00,West,267,0.0,0.0,67,0.00,,,0.00,0.000000,,2013-04-24 06:21:00,
2013-04-23 22:32:00,41.0,31.0,-100.00,West,267,0.0,0.0,67,0.00,,,0.00,0.000000,,2013-04-24 06:32:00,
2013-04-23 22:42:00,41.0,31.0,-100.00,West,267,0.0,0.0,67,0.00,,,0.00,0.000000,,2013-04-24 06:42:00,
2013-04-23 22:51:00,41.0,31.0,-100.00,West,267,0.0,0.0,67,0.00,,,0.00,0.000000,,2013-04-24 06:51:00,
2013-04-23 23:22:00,40.0,37.0,-100.00,East,93,0.0,0.0,88,0.00,,,0.00,0.000000,,2013-04-24 07:22:00,
2013-04-23 23:32:00,40.0,37.0,-100.00,East,93,0.0,0.0,88,0.00,,,0.00,0.000000,,2013-04-24 07:32:00,
2013-04-23 23:41:00,40.0,37.0,-100.00,East,93,0.0,0.0,88,0.00,,,0.00,0.000000,,2013-04-24 07:41:00,
2013-04-23 23:52:00,40.0,37.0,-100.00,East,93,0.0,0.0,88,0.00,,,0.00,0.000000,,2013-04-24 07:52:00,